Lid_Strength_Index
1 0 0 -0 -0 -0 -0 -0 -0 -0 -0 -0 -0 -0 -0 -0 -0 -0 -0 0 0 0 0 1 1 1 1 1 1 1 2 2 4 3 2 2 2 2 2 2 1 1 2
0 0 1 0 -0 0 0 0 -0 0 -0 -0 -0 0 0 -0 -0 0 0 0 1 1 1 1 1 1 1 1 1 1 1 1 2 4 2 2 2 2 1 2 2 2 2
1 1 1 1 0 0 0 0 -0 -0 -0 -0 -0 0 0 0 0 0 0 0 1 0 1 1 1 1 1 1 1 1 1 1 1 3 3 2 2 2 2 2 2 2 1
1 1 1 1 1 0 0 0 0 -0 0 0 0 0 0 0 0 0 0 0 0 0 0 0 0 1 1 1 1 1 1 2 2 3 3 3 3 2 2 3 3 2 3
1 1 1 0 0 0 0 0 0 0 0 0 1 0 0 0 0 0 0 0 1 1 0 0 0 1 3 2 0 1 1 2 2 3 3 3 3 3 3 3 4 3 2
1 1 1 1 1 0 0 0 0 0 0 0 1 1 1 1 6 5 2 1 1 1 1 1 0 1 2 6 6 5 1 2 2 3 3 4 3 3 3 4 4 4 3
1 1 1 1 1 1 1 1 1 1 0 1 1 1 1 0 8 7 5 0 1 1 0 1 1 0 1 0 6 6 6 7 4 2 3 2 3 2 3 4 2 3 3
1 1 1 1 1 1 1 1 0 0 1 1 1 1 1 1 8 7 7 0 1 1 0 0 1 1 1 1 2 2 3 3 1 1 1 1 1 1 -0 1 2 1 1
1 1 1 1 1 1 1 1 0 1 1 1 1 1 1 1 9 7 3 1 1 1 1 2 2 1 9 7 2 3 3 4 9 9 7 7 8 6 3 0 1 2 2
1 1 1 1 1 1 1 1 0 0 1 1 2 1 4 2 9 8 3 1 2 2 1 2 7 5 9 7 1 2 3 2 1 3 3 5 3 4 6 -1 -0 1 2
1 0 0 0 1 0 0 0 0 0 1 1 1 1 1 1 3 9 7 1 2 2 2 1 4 10 10 8 6 1 2 1 2 0 0 0 -0 -0 -1 -1 -2 -0 1
0 1 1 0 0 1 1 0 0 1 1 1 1 2 1 0 5 9 10 6 4 1 1 1 3 11 11 9 6 10 8 4 0 1 1 1 1 0 -0 -1 -1 -1 -1
1 1 1 0 0 0 1 1 1 1 1 1 2 2 2 1 1 8 10 9 8 1 -0 6 10 11 10 8 10 8 8 0 0 1 1 1 0 -0 -1 -0 0 1 1
1 1 1 1 1 0 1 1 1 1 1 1 1 2 2 2 1 1 0 0 6 2 6 1 5 5 8 5 4 3 -0 -0 0 1 1 0 1 1 1 1 2 2 3
1 1 1 1 1 1 1 1 1 0 1 1 1 1 2 2 1 2 2 1 0 2 1 0 1 1 1 1 0 0 0 0 0 0 1 1 1 0 0 -0 0 1 3
1 1 1 1 1 1 1 1 11 8 7 7 6 3 0 6 9 9 8 9 10 9 1 1 1 1 1 1 1 1 0 1 0 -0 0 0 0 1 1 2 2 2 3
1 1 1 2 1 1 1 1 2 4 9 9 9 7 7 6 9 10 12 12 11 9 1 1 1 1 1 1 1 1 1 0 -1 0 0 0 1 2 3 3 3 2 4
1 6 1 1 1 1 1 1 1 2 2 2 8 6 9 10 11 11 12 10 3 4 1 1 1 1 1 1 0 0 0 0 0 0 1 1 1 2 3 3 3 3 4
1 1 1 1 1 1 1 1 1 1 1 1 1 7 8 11 12 12 11 1 1 1 1 1 0 0 0 0 0 0 0 1 0 0 0 1 1 2 3 3 3 9 8
1 5 3 1 1 1 1 1 1 1 1 1 1 1 1 4 1 1 3 1 1 1 1 0 0 0 0 0 0 0 1 1 1 1 1 1 1 2 3 3 3 5 7
1 1 4 1 1 1 1 1 1 1 1 1 1 1 6 1 1 1 1 1 1 0 0 1 1 1 0 0 -0 1 1 1 1 1 1 1 1 2 2 2 2 5 7
1 1 1 1 1 1 1 1 1 1 1 1 1 1 10 1 1 1 1 0 0 -0 -0 -0 0 1 1 1 1 1 2 2 1 1 2 2 2 2 2 2 3 6 8
1 1 1 1 1 4 1 1 1 1 1 1 1 1 1 1 1 1 0 0 -0 -0 -0 -0 -0 -0 0 0 1 2 2 2 2 1 2 2 2 2 3 3 5 6 7
1 1 1 1 1 1 1 1 1 4 1 1 1 1 1 1 1 0 0 0 -0 -0 -0 -0 -0 -0 -0 0 0 0 1 1 1 2 1 2 2 4 2 4 5 5 7
1 1 1 1 1 1 1 1 1 1 1 1 1 1 1 1 1 0 0 -0 -0 -0 -0 -0 -0 -0 -0 0 0 0 3 12 3 5 1 1 1 2 3 4 5 8 10
1 1 1 1 1 1 1 1 1 1 1 1 1 1 1 1 0 0 0 0 0 0 -0 -0 -1 -1 -0 0 0 4 12 12 6 12 2 1 2 3 4 4 6 10 12